sat.trackr.live / text

‹ back to catalog

STARLINK-36754

NORAD 67725 · 2026-026E

PAYLOAD ACTIVE UNKNOWN

§ Identity

Operator
Country
US
Launch date
2026-02-11
Launch site
AFWTR
Launch vehicle
Mass (kg)
RCS (m²)

Purposes: comms

External: N2YO · Heavens-Above · Gunter

§ Orbital elements

Epoch: 2026-05-25T02:27:06.910848Z

Period
93.90 min
Inclination
97.2864°
Eccentricity
0.0000231
Mean motion
15.33482991 rev/d
Perigee alt
465.3 km
Apogee alt
465.6 km
Semi-major
6,843.6 km
B*
9.5079e-4
RAAN
198.5843°
Arg perigee
147.3097°
Mean anomaly
212.8160°
Rev number
1,583

§ Raw data

STARLINK-367541 67725U 26026E   26145.10216332  .00030782  00000+0  95079-3 0  99912 67725  97.2864 198.5843 0000231 147.3097 212.8160 15.33482991 15832

JSON: /api/v1/satellites/67725 · /tle

For live sub-satellite position, see the globe view (requires WebGL).

§ Visibility from observer

Set your observer location to see the next 7 days of passes ≥ 10°. The values pass through the URL so the page stays shareable.

No JS? Fill the form by hand. The geolocation button needs JavaScript.